DECAYED

STARLINK-1726, 46362 (Decayed)

Orbit data source: Space-Track

STARLINK-1726, 46362 was a payload satellite owned by SpaceX/Seattle (US) in LEO that was launched on Thu, 03 Sep 2020 UTC via an FALCON 9 launch vehicle from the Air Force Eastern Test Range (AFETR). Payload-class satellites include a variety of spacecraft equipped with specific instruments for various scientific and technological missions. These include communications satellites like Starlink; space stations such as the ISS; scientific satellites like the Hubble; Earth observation satellites from companies like Planet Labs, Umbra, and HawkEye 360; GPS; miniature CubeSats for education and research; and military/defense satellites.

Not visible in the next 10 days
Identifier
46362, 2020-062AP
Orbit
Decayed
Country
Flag of USUS
Related business
Manufacturer
SpaceX/Seattle
Mission
Decayed Commercial Communications
Bus & Motor
STARLINK, Unknown motor
Mass
260 kg wet, ~248 kg dry
Launch date (UTC)
2020-09-03 (6 years ago)
Launch vehicle
FALCON 9
Launch site
Air Force Eastern Test Range (AFETR)
Object type
Payload
Rocket body
Debris
Shape & HBR
Box + 1 Pan, 10.1 m
Radar Cross Section
13.562 m², Large (>1 m²)

Expand to show TLE details & history
Last TLE update: 5 months ago

TLE from 5 months ago
0 STARLINK-1726
1 46362U 20062AP  26082.71276403  .14043266  12594-4  31404-3 0  9995
2 46362  53.0215 186.7944 0005596 307.4063  52.6476 16.46252649308204
Epoch: 2026-03-23T17:06Z
TLE epoch observation values (Epoch: 2026-03-23T17:06:22.812Z)
Latitude
-0°
Longitude
108.99852°
Altitude
147.936 km
Speed
7.82 km/s
True Right ascension
12h 27m 10s
True Declination
0° 00' 00"
Sunlit
Object was in full shadow at epoch
Visualization orbit readout
Latitude
Unknown
Longitude
Unknown
Altitude
Unknown
Speed
Unknown
Apparent Right ascension
Unknown
Apparent Declination
Unknown
Sunlit
N/A
Visualization observer readout
Local Sidereal Time
12:41:00
Azimuth
Unknown
Elevation
Unknown
Doppler factor
Unknown
Orbital elements
Apogee altitude
153.167 km
Perigee altitude
145.862 km
Semi-major axis
6,527.652 km
Eccentricity
0.00056
Inclination
53.0215°
RAAN
186.7944°
Arg. of periapsis
307.4063°
True anomaly
52.6986°
Mean anomaly
52.6476°
Eccentric anomaly
52.6731°
Mean motion
4.11536 °/min
Orbital period
87.48 mins
BSTAR
0.00031404
Loading maneuver chart data...
Computing Atmospheric mass density...

Documentation

Showing up to 5 results
|